Tracking 30923 objects as of 1-Jul-2025
HD Live streaming from Space Station
objects crossing your sky now

STARLINK-31196

Track STARLINK-31196 now!
10-day predictions
STARLINK-31196 is classified as:


NORAD ID: 58868
Int'l Code: 2024-019R
Perigee: 494.1 km
Apogee: 496.4 km
Inclination: 43.0 °
Period: 94.4 minutes
Semi major axis: 6866 km
RCS: Unknown
Launch date: January 29, 2024
Source: United States (US)
Launch site: AIR FORCE EASTERN TEST RANGE (AFETR)
Your satellite tracking list
Your tracking list is empty




NASA's NSSDC Master Catalog

Two Line Element Set (TLE):
1 58868U 24019R   25181.42458772  .00000131  00000-0  14866-4 0  9991
2 58868  43.0023 233.4248 0001672 275.6363  84.4297 15.25906940 80488
Source of the keplerian elements: AFSPC